Regional Weather Roundup
Issued by NWS Grand Forks, ND

Home | Current Version | Previous Version | Graphics & Text | Print | Product List | Glossary On
Versions: 1 2 3 4 5 6 7 8 9 10 11 12 13 14 15 16 17 18 19 20 21 22 23 24 25 26 27 28 29 30 31 32 33 34 35 36 37 38 39 40 41 42 43 44 45 46 47 48 49 50
000
ASUS43 KFGF 030710
RWRFGF
PRAIRIE TO PINES  WEATHER ROUNDUP
NATIONAL WEATHER SERVICE EASTERN NORTH DAKOTA/GRAND FORKS ND
100 AM CST TUE MAR 03 2015

 **SATELLITE DATA USED TO AUGMENT SKY COVER AT AUTOMATED STATIONS**
 *****  WEATHER ACROSS EASTERN NORTH DAKOTA  *****

CITY           SKY/WX    TMP DP  RH WIND       PRES   REMARKS
GRAND FORKS    CLOUDY    24  18  77 S8        29.74S WCI  15
GRAND FRKS AFB CLOUDY    24  18  77 SW9       29.73R WCI  15
GRAND FRKS NWS   N/A     23 N/A N/A SW9         N/A  WCI  13
DEVILS LAKE    MOCLDY    18  12  79 NW17      29.75R WCI   2
FARGO          CLOUDY    28  20  71 S22G29    29.74F WCI  14
WAHPETON ARPT  CLOUDY    28  21  74 S18       29.78F WCI  16
$$

 ***** WEATHER ACROSS CENTRAL AND WESTERN NORTH DAKOTA  *****

CITY           SKY/WX    TMP DP  RH WIND       PRES   REMARKS
BISMARCK       CLOUDY    19  12  74 N25G37    29.83R WCI   1
MINOT          FLURRIES  14   8  77 NW26      29.88R WCI  -6
JAMESTOWN      CLOUDY    24  18  77 NW17G24   29.74R WCI  11
MINOT AFB      LGT SNOW  14  10  85 NW35      29.86R FOG     WCI  -8
GARRISON         N/A     15   9  76 NW28G37   29.85R WCI  -5
WILLISTON      CLOUDY    13   5  70 NW22G32   30.00R WCI  -6
DICKINSON      CLOUDY    15   7  70 NW24G36   29.85R WCI  -4
HETTINGER      CLOUDY    17   9  70 NW23G33   29.83R WCI  -1
$$

 *****  OTHER AIRPORT OBSERVATIONS IN OUR AREA  *****

CITY           SKY/WX    TMP DP  RH WIND       PRES   REMARKS
WALHALLA         N/A     23  16  74 NW13G24   29.73R WCI  11
GRAFTON AIRPOR NOT AVBL
VALLEY CITY AR FAIR      25  25 100 SW9       29.73S WCI  15
CANDO          CLOUDY    16  10  79 NW23      29.77R WCI  -2
CAVALIER APRT  FAIR      23  16  74 W14       29.72R WCI  11
GWINNER        SUNNY     32  23  69 S14       29.72F WCI  22
SHEYENNE NWR     N/A     27  21  79 S8        29.95S WCI  19
ROLLA          FLURRIES  14   9  79 NW31G39   29.75R WCI  -7
 ***** THE ABOVE OBSERVATIONS ARE NON NWS ARE NOT QUALITY
       CONTROLLED AND MAY MIS-REPORT RAIN FOR SNOW...
$$

  *****  WEATHER ACROSS NORTHERN MINNESOTA  *****

CITY           SKY/WX    TMP DP  RH WIND       PRES   REMARKS
FLAG ISLAND    CLOUDY    19  16  86 S10       29.68F WCI   8
WARROAD        PTCLDY    25  18  74 S14G22    29.69F WCI  13
ROSEAU         PTCLDY    25  18  74 SW16G22   29.70S WCI  12
HALLOCK        NOT AVBL
THF RVR FALLS  CLOUDY    25  18  74 S20       29.73F WCI  11
BAUDETTE       MOCLDY    23  12  62 S15       29.70F WCI  10
WASKISH        CLOUDY    25  16  68 S13G18    29.74F WCI  13
CROOKSTON      CLOUDY    25  19  80 S18G24    29.76S WCI  11
STEPHEN NDAWN    N/A     23  18  80 SW16        N/A  WCI  10
GREENBUSH NDAW   N/A     23  18  80 SW21        N/A  WCI   8
$$
  *****  WEATHER ACROSS CENTRAL AND WEST MINNESOTA  *****

CITY           SKY/WX    TMP DP  RH WIND       PRES   REMARKS
FOSSTON        CLOUDY    23  18  80 S21       29.74F WCI   8
BEMIDJI        CLOUDY    23  15  72 S14G23    29.76F WCI  11
PARK RAPIDS    CLOUDY    23  16  74 S14       29.80F WCI  11
ELBOW LAKE     CLOUDY    24  21  89 S22G30    29.81F WCI   9
WADENA         CLOUDY    21  18  86 S14G21    29.82F WCI   8
DETROIT LAKES  CLOUDY    27  23  86 S20       29.77F WCI  13
MOORHEAD       CLOUDY    27  25  93 S18G25    29.76F WCI  13
FERGUS FALLS   CLOUDY    25  19  80 S18       29.84F WCI  11
MORRIS MN      CLOUDY    25  19  80 S21G26    29.83F WCI  10
STAPLES        CLOUDY    21  16  79 S14       29.85F WCI   8
$$
  *****  WEATHER ELSEWHERE ACROSS MINNESOTA  *****

CITY           SKY/WX    TMP DP  RH WIND       PRES   REMARKS
DULUTH         CLOUDY    20   4  50 S12       29.91F WCI   8
INTRNTL FALLS  CLOUDY    24   9  52 VRB7      29.75F WCI  16
ELY            CLOUDY    19   5  53 S9        29.85F WCI   9
CLOQUET        CLOUDY    19   7  58 S10       29.92F WCI   8
WHEATON        MIX PCPN  25  19  80 SE20G26   29.81F WCI  11
BRAINERD       CLOUDY    21  12  68 S15       29.88F WCI   8
HIBBING        CLOUDY    20   6  55 S10G21    29.86F WCI   9
ALEXANDRIA     CLOUDY    23  19  85 S15       29.84F WCI  10
SAINT CLOUD    CLOUDY    22  13  68 SE13      29.93F WCI  10
MINNEAPOLIS    CLOUDY    22  10  60 SE7       29.99F WCI  13
$$

  *****  WEATHER ACROSS SOUTH DAKOTA  *****

CITY           SKY/WX    TMP DP  RH WIND       PRES   REMARKS
SIOUX FALLS    CLOUDY    27  19  72 SE14      29.80F WCI  16
BROOKINGS      NOT AVBL
WATERTOWN      CLOUDY    26  20  77 S16       29.75F WCI  14
HURON          CLOUDY    31  20  63 S12       29.74F WCI  22
SISSETON         N/A     28  23  81 S15       29.76F WCI  16
ABERDEEN       CLOUDY    30  22  72 S15       29.72F WCI  19
MITCHELL       CLOUDY    30  19  63 S12       29.76F WCI  20
PIERRE         LGT SNOW  32  29  88 S7        29.69R FOG
MOBRIDGE       CLOUDY    31  21  66 N24G35    29.67S WCI  17
RAPID CITY     CLOUDY    31  20  63 N30G37    29.72R WCI  16
$$

  *****  SOME WEATHER IN NEARBY STATES *****

CITY           SKY/WX    TMP DP  RH WIND       PRES   REMARKS
GLASGOW MT     CLOUDY    13   0  56 N22       30.11R WCI  -6
GREAT FALLS MT CLOUDY    12   7  80 NE9       30.15R WCI   0
CHEYENNE WY    CLOUDY    40  20  44 SW20G29   29.50F
SCOTTSBLUFF NE LGT SNOW  29  28  96 NE10      29.57F VSB 3/4 WCI  20
OMAHA NE       CLOUDY    32  21  64 S18       29.85F WCI  20
DES MOINES IA  CLOUDY    30  20  66 SE13      29.96F WCI  20
DAVENPORT IA   CLOUDY    26  16  65 SE15      30.10F WCI  14
CHICAGO IL     CLOUDY    26  16  65 S13       30.20F WCI  15
EAU CLAIRE WI  CLOUDY    20  16  84 SE3       30.05F
LA CROSSE WI   CLOUDY    26  14  60 SE7       30.08F WCI  18
$$

  *****  SOME NATIONAL WEATHER *****

CITY           SKY/WX    TMP DP  RH WIND       PRES   REMARKS
LA GUARDIA NY  CLEAR     27  11  51 NW12      30.39R WCI  17
RALEIGH NC     MOCLDY    42  36  79 SE8       30.36R
ATLANTA GA     CLOUDY    52  45  77 CALM      30.22S
NEW ORLEANS LA FOG       67  65  93 SE3       30.16F VSB 1/16
OKLAHOMA CITY  CLOUDY    37  36  93 S18       30.00S FOG
ALBUQUERQUE NM CLOUDY    42  34  73 N12       29.98S
SALT LAKE CITY MOCLDY    34  33  96 SE3       29.80R
LOS ANGELES CA MOCLDY    52  46  80 E8        29.98S
BOISE ID       CLOUDY    35  24  64 W10       29.84R
SEATTLE WA     CLEAR     43  33  68 NE7       30.13R
$$

*** WEATHER ACROSS MANITOBA...SASKATCHEWAN AND ONTARIO ***
                ***ONTARIO***

CITY           SKY/WX    TMP DP  RH WIND       PRES   REMARKS
GERALDTON      MOCLDY     9   5  85 S8        29.93F WCI  -4
THUNDER BAY    CLOUDY     5   1  85 NE3       29.98F
SIOUX LOOKOUT  FLURRIES  21   7  53 S12G21    29.72F WCI   9
TORONTO        PTCLDY     9   3  78 W6        30.37R WCI  -1
BIG TROUT LK   CLOUDY    10   1  67 S8        29.66F WCI  -1
PICKLE LAKE    NOT AVBL
DRYDEN         CLOUDY    21   9  58 S14       29.71F WCI   8
KENORA         FLURRIES  23  12  63 S13G21    29.66F WCI  11
$$
                *** MANITOBA***

CITY           SKY/WX    TMP DP  RH WIND       PRES   REMARKS
BRANDON        PTCLDY    10   5  79 NW22G29   29.80R WCI  -9
DAUPHIN        MOCLDY    12   5  73 NW8       29.80R WCI   1
ISLAND LAKE    FLURRIES  19  14  79 S5        29.51F WCI  13
PILOT MOUND      N/A     14  10  85 NW25G31     N/A  WCI  -5
THE PAS        MOCLDY     1  -6  71 NW15G23   29.85S WCI -18
THOMPSON       FLURRIES   0  -8  71 NW15G26   29.68S WCI -20
WINNIPEG       CLOUDY    19  14  79 W16       29.68S WCI   5
LYNN LAKE      LGT SNOW -11 -18  70 NW21G28   29.83R WCI -37
CHURCHILL      FLURRIES  -6 -13  71 E17G23    29.82R WCI -28
GILLAM         LGT SNOW  14  12  92 N8        29.53F WCI   3
$$
                ***SASKATCHEWAN***

CITY           SKY/WX    TMP DP  RH WIND       PRES   REMARKS
ESTEVAN        PTCLDY     5  -2  72 NW25G32   29.98R WCI -18
KINDERSLEY     PTCLDY     1  -8  66 NW16G22   30.15R WCI -18
LLOYDMINSTER   CLEAR     -2 -11  65 NW12G20   30.17R WCI -20
PRINCE ALBERT  PTCLDY    -2 -13  60 NW15      30.06R WCI -22
REGINA         NOT AVBL
YORKTON        CLOUDY     3  -2  78 NW23G29   29.86R HAZE    WCI -19
N. BATTLEFORD  MOCLDY     0  -8  71 NW15G21   30.16R WCI -20
LA RONGE       LGT SNOW  -8 -17  65 NW18G25   30.05S BLWGSNOWWCI -31
SASKATOON      PTCLDY    -4  -9  77 NW13      30.09S WCI -23
SWIFT CURRENT  CLEAR      1  -4  78 NW15G21   30.08R WCI -18
$$
NOTE: THESE ARE AUTOMATED STATIONS WITH LIMITED QUALITY CONTROL
      "FAIR" INDICATES FEW OR NO CLOUDS BELOW 12,000 FEET WITH NO
      SIGNIFICANT WEATHER AND/OR OBSTRUCTIONS TO VISIBILITY.
      SKY/WX - SKY CONDITION AND SIGNIFICANT WEATHER.
      TMP - AIR TEMPERATURE.    DP   - DEWPOINT TEMPERATURE.
      RH  - RELATIVE HUMIDITY.  PRES - PRESSURE.
      HX  - HEAT INDEX.         WCI  - WIND CHILL INDEX.
$


USA.gov is the U.S. government's official web portal to all federal, state and local government web resources and services.